Home   Weather   Kiritimati   Past weeks
Flag for Kiribati

Past Weather in Kiritimati, Christmas Island, Kiribati — Yesterday and Last 2 Weeks

Now
79 °F

Broken clouds.


Feels Like: 82 °F
Forecast: 85 / 81 °F
Wind: 8 mph from East

Location: Christmas / Cassidy

Current Time: Apr 22, 2019 at 8:56:57 am

Latest Report: Apr 22, 2019 at 7:00 am


Visibility: N/A

Pressure: 29.80 "Hg

Humidity: 89%

Dew Point: 75 °F

Location of KiritimatiLocation

Past Weather in Kiritimati — Graph

°F

Kiritimati Temperature Yesterday

Maximum temperature yesterday: 86 °F (at 10:00 am)
Minimum temperature yesterday: 79 °F (at 9:00 pm)
Average temperature yesterday: 83 °F

High & Low Weather Summary for the Past Weeks

 TemperatureHumidityPressure
High90 °F (Apr 7, 1:00 pm)100% (Apr 9, 9:00 am)29.86 "Hg (Apr 9, 9:00 am)
Low75 °F (Apr 10, 7:00 am)63% (Apr 7, 1:00 pm)29.71 "Hg (Apr 11, 4:00 pm)
Average83 °F83%29.79 "Hg
* Reported Apr 7 7:00 am — Apr 22 7:00 am, Kiritimati. Weather by CustomWeather, © 2019

Note: Actual official high and low records may vary slightly from our data, if they occured in-between our weather recording intervals... More about our weather records

Advertising

Kiritimati Weather History for the Previous 24 Hours

Scroll right to see more
 ConditionsComfort  
Time TempWeatherWind HumidityBarometerVisibility
7:00 am
Mon, Apr 22
79 °FBroken clouds.8 mph89%29.80 "HgN/A
6:00 am79 °FSprinkles. Broken clouds.10 mph94%29.80 "HgN/A
5:00 am81 °FPassing clouds.9 mph84%29.80 "HgN/A
4:00 am81 °FPassing clouds.8 mph84%29.77 "HgN/A
3:00 am81 °FPassing clouds.9 mph84%29.77 "HgN/A
11:00 pm
Sun, Apr 21
81 °FPassing clouds.15 mph89%29.83 "HgN/A
9:00 pm79 °FSprinkles. Mostly cloudy.16 mph89%29.80 "HgN/A
8:00 pm82 °FPassing clouds.13 mph84%29.80 "HgN/A
7:00 pm82 °FPassing clouds.10 mph84%29.77 "HgN/A
6:00 pm84 °FPassing clouds.14 mph79%29.74 "HgN/A
5:00 pm84 °FPassing clouds.15 mph74%29.74 "HgN/A
4:00 pm84 °FScattered clouds.12 mph79%29.71 "HgN/A
3:00 pm86 °FScattered clouds.12 mph75%29.74 "HgN/A
2:00 pm81 °FScattered clouds.8 mph94%29.74 "HgN/A
12:00 pm86 °FPassing clouds.14 mph75%29.80 "HgN/A
11:00 am86 °FScattered clouds.12 mph75%29.80 "HgN/A
10:00 am86 °FScattered clouds.14 mph75%29.83 "HgN/A
9:00 am84 °FScattered clouds.10 mph79%29.83 "HgN/A
8:00 am84 °FScattered clouds.10 mph74%29.80 "HgN/A
Weather by CustomWeather, © 2019

See weather overview